Overview Statistics Trail Chart Weather Telemetry Raw packets
 

This is the latest recevied weather packets stored in our database for station/object OH2MUI. If no packets are shown the sender has not sent any weather packets the latest 10 day(s).

<< 1 2 3 4 5 6 7 >>
Time Temp. Humidity Pressure Rain* Wind** Luminosity Snow
1788502325 8.89° C 99% 1000.1 hPa 0.25 mm - - -
1788501311 8.89° C 99% - 0.25 mm - - -
1788501306 8.89° C 99% 1000.4 hPa 0.25 mm - - -
1788500240 7.78° C 99% 1000 hPa 0.25 mm - - -
1788499265 7.78° C 99% 1000 hPa 0.25 mm - - -
1788498125 7.22° C 99% 1000.1 hPa 0.25 mm - - -
1788497151 7.22° C 99% 1000.4 hPa 0.25 mm - - -
1788496122 6.67° C 99% 1000.5 hPa 0.25 mm - - -
1788495152 6.67° C 99% 1000.7 hPa 0 mm - - -
1788494000 7.22° C 99% 1001.2 hPa 0 mm - - -
1788493025 7.22° C 99% 1001.2 hPa 0.25 mm - - -
1788491940 7.22° C 99% 1001.5 hPa 0.25 mm - - -
1788490870 7.22° C 99% 1001.5 hPa 0.25 mm - - -
1788489675 7.22° C 99% 1001.9 hPa 0.25 mm - - -
1788488581 7.22° C 99% 1002.1 hPa 0.25 mm - - -
1788488577 7.22° C 99% 1002.1 hPa 0.25 mm - - -
1788487530 7.78° C 99% 1001.9 hPa 0.25 mm - - -
1788486405 7.22° C 99% 1002.2 hPa 0.25 mm - - -
1788485270 7.22° C 99% 1002.4 hPa 0.25 mm - - -
1788484280 7.22° C 99% 1002.5 hPa 0.25 mm - - -
1788483240 7.78° C - - 0.25 mm - - -
1788483235 7.78° C 99% 1002.8 hPa 0.25 mm - - -
1788482137 7.22° C 99% 1003.1 hPa 0.25 mm - - -
1788481140 7.78° C 99% 1003.1 hPa 0.25 mm - - -
1788480150 7.78° C 99% 1003.3 hPa 0 mm - - -

* Rain latest hour (hover to see other rain measurements)
** Current wind speed in m/s (hover to see current wind gust speed)